Notices

What's New in latest Release from April 7th, 2021:

- Updated Glossary, including Speed of Maximum Gust, and Total Hourly Precipitation

- Updated national and regional climate services offices contacts and prices information

- Addition of station inventory lists for 1981-2010, 1971-2000, and 1961-1990 Normals.

If you haven't already, please take our survey and provide feedback about our website: https://eccc.sondage-survey.ca/f/LanguageSelection.aspx?s=442ca660-fcf1-47c0-95a9-59707d6fd709

Hourly Data Report for November 14, 2017

VICTORIA UNIVERSITY CS
BRITISH COLUMBIA

48°27'25.200" N
123°18'16.600" W
60.10 m
1018598
71783
WYJ

Download Data

Hourly Data (November 2017)
Hourly Data Report for November 14, 2017
TIME
LST
Temp Definition
°C
Dew Point Definition
°C
Rel Hum Definition
%
Precip. Amount Definition
mm

Wind Dir Definition
10's deg

Wind Spd Definition
km/h
Visibility Definition
km
Stn Press Definition
kPa
Hmdx Definition


Wind Chill Definition


Weather Definition


00:00 8.2 7.3 94 0.5 13 4   100.45     LegendNANA
01:00 7.6 6.8 95 0.6 9 5   100.49     LegendNANA
02:00 7.1 6.5 96 0.0 11 2   100.48     LegendNANA
03:00 6.9 6.2 96 0.0 25 2   100.50     LegendNANA
04:00 6.9 6.3 96 0.0 14 3   100.50     LegendNANA
05:00 6.9 5.9 94 0.0 10 2   100.46     LegendNANA
06:00 6.9 5.1 88 0.0 16 4   100.46     LegendNANA
07:00 7.6 6.0 90 0.0 15 8   100.43     LegendNANA
08:00 7.7 5.9 89 0.0 15 8   100.45     LegendNANA
09:00 7.9 5.6 86 0.2 15 12   100.47     LegendNANA
10:00 7.8 6.3 91 1.2 15 7   100.47     LegendNANA
11:00 8.4 6.2 86 0.0 14 10   100.44     LegendNANA
12:00 8.4 6.3 87 0.4 16 10   100.42     LegendNANA
13:00 8.4 6.9 91 1.3 15 7   100.32     LegendNANA
14:00 8.6 6.7 88 0.6 15 8   100.24     LegendNANA
15:00 8.6 6.6 87 0.5 15 13   100.21     LegendNANA
16:00 8.7 6.6 87 0.3 15 7   100.10     LegendNANA
17:00 8.9 6.2 84 0.0 14 8   100.03     LegendNANA
18:00 9.1 6.1 81 0.0 15 8   99.98     LegendNANA
19:00 9.3 5.7 79 0.0 14 10   99.89     LegendNANA
20:00 9.2 5.3 77 0.0 15 11   99.78     LegendNANA
21:00 9.1 5.4 78 0.0 14 7   99.69     LegendNANA
22:00 8.9 5.3 78 0.0 12 8   99.64     LegendNANA
23:00 8.9 5.6 80 0.0 14 8   99.57     LegendNANA

Notes on Data Quality.

Legend

  • E = Estimated
  • M = Missing
  • NA = Not Available*
  • [empty] = Indicates an unobserved value
Date modified: